Regional Weather Roundup
Issued by NWS Bismarck, ND

Home | Current Version | Previous Version | Text Only | Print | Product List | Glossary On
Versions: 1 2 3 4 5 6 7 8 9 10 11 12 13 14 15 16 17 18 19 20 21 22 23 24 25 26 27 28 29 30 31 32 33 34 35 36 37 38 39 40 41 42 43 44 45 46 47 48 49 50
000
ASUS43 KBIS 271710
RWRBIS

NWR BROADCAST TEXT
NATIONAL WEATHER SERVICE BISMARCK ND
1200 PM CDT WED MAY 27 2015

NOTE: "FAIR" INDICATES FEW OR NO CLOUDS BELOW 12,000 FEET WITH NO
SIGNIFICANT WEATHER AND/OR OBSTRUCTIONS TO VISIBILITY.


CITY           SKY/WX    TMP DP  RH WIND       PRES   REMARKS
WILLISTON      PTSUNNY   76  47  35 S8        29.92F
MINOT          SUNNY     72  50  45 E8        29.96R
MINOT AFB      SUNNY     71  55  55 E6        29.96R
BISMARCK       SUNNY     77  50  38 S6        29.97S
DICKINSON      MOSUNNY   76  50  40 S15G24    29.93F
GARRISON         N/A     76  52  43 SE9       29.96R
HETTINGER ARPT MOSUNNY   73  52  47 SE10      29.97S
JAMESTOWN      SUNNY     77  48  35 CALM      29.96R
BEACH          FAIR      72  50  46 S14G20    29.94S
CARRINGTON     FAIR      75  50  41 W5        29.97R
CROSBY         FAIR      68  50  52 E15       29.96R
HARVEY         FAIR      73  48  40 NE6       29.97S
HAZEN          FAIR      77  48  36 S8        29.96S
LINTON         FAIR      77  54  44 S12       29.99R
MANDAN         FAIR      77  52  41 S14       29.98S
OAKES            N/A     75  55  50 W5        29.97S
WATFORD CITY   FAIR      75  46  35 SE12      29.91S
$$

CITY           SKY/WX    TMP DP  RH WIND       PRES   REMARKS
GRAND FORKS    MOSUNNY   66  48  52 N13G18    29.96R
GRAND FORKS AF SUNNY     66  49  53 N9        29.98R
DEVILS LAKE    SUNNY     66  46  48 E9        29.98R
FARGO          SUNNY     74  55  51 N6        29.95R
CANDO          FAIR      64  46  52 NE10G16   30.00R
CAVALIER       FAIR      63  45  51 N13G18    30.00R
GRAFTON        FAIR      64  46  52 N15       29.98R
LANGDON        FAIR      63  48  59 N14       30.01R
ROLLA          FAIR      59  43  55 NE13      30.02S
WALHALLA         N/A     63  45  51 MISG      30.01R
$$

CITY           SKY/WX    TMP DP  RH WIND       PRES   REMARKS
ABERDEEN       SUNNY     81  51  35 N7        29.98R
MOBRIDGE       MOSUNNY   77  51  40 S7        29.97S
BUFFALO          N/A     71  52  50 VRB7      29.90S
RAPID CITY     PTSUNNY   69  55  60 S14       29.99F
GLASGOW        PTSUNNY   66  53  63 E12       29.94F
SIDNEY         PTSUNNY   72  50  46 CALM      29.93R
WOLF POINT     RAIN      58  55  90 VRB3      29.97R FOG
GLENDIVE       PTSUNNY   70  54  56 N12       29.94S
MILES CITY     LGT RAIN  58  56  93 NW12      29.96R FOG
BAKER          PTSUNNY   72  52  49 S15       29.95S
$$

CITY           SKY/WX    TMP DP  RH WIND       PRES   REMARKS
BILLINGS       PTSUNNY   63  52  67 E3        30.00S
GREAT FALLS    LGT RAIN  52  50  93 SW9       30.03S
REGINA         PTSUNNY   64  48  55 E14G20    29.99F
ESTEVAN        CLOUDY    64  46  52 E16       29.97S
$$




USA.gov is the U.S. government's official web portal to all federal, state and local government web resources and services.